Year,Month,Day,Hour,Minute,Value (Times are PST for temperature in C)
2006,10,22,00,00,7.10
2006,10,22,00,01,7.10
2006,10,22,00,02,7.10
2006,10,22,00,03,7.10
2006,10,22,00,04,7.00
2006,10,22,00,05,7.00
2006,10,22,00,06,7.00
2006,10,22,00,07,6.90
2006,10,22,00,08,6.90
2006,10,22,00,09,6.90
2006,10,22,00,10,6.80
2006,10,22,00,11,6.80
2006,10,22,00,12,6.80
2006,10,22,00,13,6.80
2006,10,22,00,14,6.80
2006,10,22,00,15,6.80
2006,10,22,00,16,6.80
2006,10,22,00,17,6.80
2006,10,22,00,18,6.80
2006,10,22,00,19,6.80
2006,10,22,00,20,6.80
2006,10,22,00,21,6.80
2006,10,22,00,22,6.80
2006,10,22,00,23,6.80
2006,10,22,00,24,6.80
2006,10,22,00,25,6.80
2006,10,22,00,26,6.80
2006,10,22,00,27,6.80
2006,10,22,00,28,6.80
2006,10,22,00,29,6.90
2006,10,22,00,30,7.00
2006,10,22,00,31,7.00
2006,10,22,00,32,7.10
2006,10,22,00,33,7.10
2006,10,22,00,34,7.10
2006,10,22,00,35,7.00
2006,10,22,00,36,7.00
2006,10,22,00,37,7.00
2006,10,22,00,38,7.00
2006,10,22,00,39,6.90
2006,10,22,00,40,6.90
2006,10,22,00,41,6.90
2006,10,22,00,42,6.80
2006,10,22,00,43,6.80
2006,10,22,00,44,6.80
2006,10,22,00,45,6.80
2006,10,22,00,46,6.80
2006,10,22,00,47,6.80
2006,10,22,00,48,6.80
2006,10,22,00,49,6.70
2006,10,22,00,50,6.70
2006,10,22,00,51,6.70
2006,10,22,00,52,6.70
2006,10,22,00,53,6.70
2006,10,22,00,54,6.60
2006,10,22,00,55,6.60
2006,10,22,00,56,6.60
2006,10,22,00,57,6.60
2006,10,22,00,58,6.60
2006,10,22,00,59,6.60
2006,10,22,01,00,6.60
2006,10,22,01,01,6.60
2006,10,22,01,02,6.60
2006,10,22,01,03,6.60
2006,10,22,01,04,6.60
2006,10,22,01,05,6.60
2006,10,22,01,06,6.60
2006,10,22,01,07,6.60
2006,10,22,01,08,6.60
2006,10,22,01,09,6.60
2006,10,22,01,10,6.60
2006,10,22,01,11,6.60
2006,10,22,01,12,6.60
2006,10,22,01,13,6.50
2006,10,22,01,14,6.40
2006,10,22,01,15,6.40
2006,10,22,01,16,6.40
2006,10,22,01,17,6.40
2006,10,22,01,18,6.40
2006,10,22,01,19,6.40
2006,10,22,01,20,6.40
2006,10,22,01,21,6.40
2006,10,22,01,22,6.40
2006,10,22,01,23,6.40
2006,10,22,01,24,6.40
2006,10,22,01,25,6.40
2006,10,22,01,26,6.40
2006,10,22,01,27,6.40
2006,10,22,01,28,6.40
2006,10,22,01,29,6.30
2006,10,22,01,30,6.30
2006,10,22,01,31,6.30
2006,10,22,01,32,6.20
2006,10,22,01,33,6.20
2006,10,22,01,34,6.20
2006,10,22,01,35,6.20
2006,10,22,01,36,6.10
2006,10,22,01,37,6.10
2006,10,22,01,38,6.10
2006,10,22,01,39,6.10
2006,10,22,01,40,6.10
2006,10,22,01,41,6.10
2006,10,22,01,42,6.10
2006,10,22,01,43,6.10
2006,10,22,01,44,6.00
2006,10,22,01,45,6.00
2006,10,22,01,46,6.00
2006,10,22,01,47,6.00
2006,10,22,01,48,6.00
2006,10,22,01,49,6.00
2006,10,22,01,50,6.00
2006,10,22,01,51,6.00
2006,10,22,01,52,6.10
2006,10,22,01,53,6.10
2006,10,22,01,54,6.10
2006,10,22,01,55,6.10
2006,10,22,01,56,6.00
2006,10,22,01,57,6.00
2006,10,22,01,58,6.00
2006,10,22,01,59,6.00
2006,10,22,02,00,6.00
2006,10,22,02,01,6.00
2006,10,22,02,02,6.00
2006,10,22,02,03,6.00
2006,10,22,02,04,5.90
2006,10,22,02,05,5.90
2006,10,22,02,06,5.90
2006,10,22,02,07,5.90
2006,10,22,02,08,5.90
2006,10,22,02,09,5.90
2006,10,22,02,10,5.90
2006,10,22,02,11,5.90
2006,10,22,02,12,5.90
2006,10,22,02,13,6.00
2006,10,22,02,14,6.00
2006,10,22,02,15,6.10
2006,10,22,02,16,6.10
2006,10,22,02,17,6.10
2006,10,22,02,18,6.10
2006,10,22,02,19,6.00
2006,10,22,02,20,6.00
2006,10,22,02,21,6.00
2006,10,22,02,22,6.10
2006,10,22,02,23,6.10
2006,10,22,02,24,6.10
2006,10,22,02,25,6.20
2006,10,22,02,26,6.20
2006,10,22,02,27,6.20
2006,10,22,02,28,6.20
2006,10,22,02,29,6.30
2006,10,22,02,30,6.30
2006,10,22,02,31,6.30
2006,10,22,02,32,6.40
2006,10,22,02,33,6.40
2006,10,22,02,34,6.40
2006,10,22,02,35,6.30
2006,10,22,02,36,6.30
2006,10,22,02,37,6.30
2006,10,22,02,38,6.30
2006,10,22,02,39,6.30
2006,10,22,02,40,6.30
2006,10,22,02,41,6.20
2006,10,22,02,42,6.20
2006,10,22,02,43,6.20
2006,10,22,02,44,6.20
2006,10,22,02,45,6.20
2006,10,22,02,46,6.20
2006,10,22,02,47,6.20
2006,10,22,02,48,6.20
2006,10,22,02,49,6.10
2006,10,22,02,50,6.10
2006,10,22,02,51,6.10
2006,10,22,02,52,6.10
2006,10,22,02,53,6.10
2006,10,22,02,54,6.10
2006,10,22,02,55,6.10
2006,10,22,02,56,6.10
2006,10,22,02,57,6.10
2006,10,22,02,58,6.10
2006,10,22,02,59,6.00
2006,10,22,03,00,6.00
2006,10,22,03,01,6.00
2006,10,22,03,02,6.00
2006,10,22,03,03,5.90
2006,10,22,03,04,5.90
2006,10,22,03,05,5.90
2006,10,22,03,06,5.80
2006,10,22,03,07,5.80
2006,10,22,03,08,5.80
2006,10,22,03,09,5.80
2006,10,22,03,10,5.80
2006,10,22,03,11,5.80
2006,10,22,03,12,5.80
2006,10,22,03,13,5.80
2006,10,22,03,14,5.80
2006,10,22,03,15,5.80
2006,10,22,03,16,5.70
2006,10,22,03,17,5.70
2006,10,22,03,18,5.70
2006,10,22,03,19,5.70
2006,10,22,03,20,5.70
2006,10,22,03,21,5.70
2006,10,22,03,22,5.70
2006,10,22,03,23,5.70
2006,10,22,03,24,5.70
2006,10,22,03,25,5.60
2006,10,22,03,26,5.60
2006,10,22,03,27,5.50
2006,10,22,03,28,5.50
2006,10,22,03,29,5.40
2006,10,22,03,30,5.40
2006,10,22,03,31,5.30
2006,10,22,03,32,5.30
2006,10,22,03,33,5.30
2006,10,22,03,34,5.30
2006,10,22,03,35,5.30
2006,10,22,03,36,5.40
2006,10,22,03,37,5.40
2006,10,22,03,38,5.40
2006,10,22,03,39,5.30
2006,10,22,03,40,5.30
2006,10,22,03,41,5.30
2006,10,22,03,42,5.30
2006,10,22,03,43,5.30
2006,10,22,03,44,5.30
2006,10,22,03,45,5.30
2006,10,22,03,46,5.20
2006,10,22,03,47,5.20
2006,10,22,03,48,5.20
2006,10,22,03,49,5.20
2006,10,22,03,50,5.20
2006,10,22,03,51,5.20
2006,10,22,03,52,5.30
2006,10,22,03,53,5.30
2006,10,22,03,54,5.30
2006,10,22,03,55,5.30
2006,10,22,03,56,5.30
2006,10,22,03,57,5.30
2006,10,22,03,58,5.30
2006,10,22,03,59,5.30
2006,10,22,04,00,5.30
2006,10,22,04,01,5.30
2006,10,22,04,02,5.30
2006,10,22,04,03,5.30
2006,10,22,04,04,5.30
2006,10,22,04,05,5.30
2006,10,22,04,06,5.30
2006,10,22,04,07,5.30
2006,10,22,04,08,5.20
2006,10,22,04,09,5.20
2006,10,22,04,10,5.20
2006,10,22,04,11,5.20
2006,10,22,04,12,5.20
2006,10,22,04,13,5.20
2006,10,22,04,14,5.20
2006,10,22,04,15,5.20
2006,10,22,04,16,5.20
2006,10,22,04,17,5.30
2006,10,22,04,18,5.30
2006,10,22,04,19,5.30
2006,10,22,04,20,5.30
2006,10,22,04,21,5.40
2006,10,22,04,22,5.40
2006,10,22,04,23,5.50
2006,10,22,04,24,5.50
2006,10,22,04,25,5.40
2006,10,22,04,26,5.40
2006,10,22,04,27,5.30
2006,10,22,04,28,5.30
2006,10,22,04,29,5.30
2006,10,22,04,30,5.30
2006,10,22,04,31,5.30
2006,10,22,04,32,5.30
2006,10,22,04,33,5.30
2006,10,22,04,34,5.20
2006,10,22,04,35,5.20
2006,10,22,04,36,5.20
2006,10,22,04,37,5.10
2006,10,22,04,38,5.10
2006,10,22,04,39,5.10
2006,10,22,04,40,5.10
2006,10,22,04,41,5.10
2006,10,22,04,42,5.10
2006,10,22,04,43,5.10
2006,10,22,04,44,5.10
2006,10,22,04,45,5.10
2006,10,22,04,46,5.10
2006,10,22,04,47,5.10
2006,10,22,04,48,5.10
2006,10,22,04,49,5.10
2006,10,22,04,50,5.10
2006,10,22,04,51,5.10
2006,10,22,04,52,5.10
2006,10,22,04,53,5.10
2006,10,22,04,54,5.10
2006,10,22,04,55,5.10
2006,10,22,04,56,5.10
2006,10,22,04,57,5.10
2006,10,22,04,58,5.10
2006,10,22,04,59,5.10
2006,10,22,05,00,5.10
2006,10,22,05,01,5.10
2006,10,22,05,02,5.10
2006,10,22,05,03,5.10
2006,10,22,05,04,4.90
2006,10,22,05,05,4.90
2006,10,22,05,06,5.10
2006,10,22,05,07,5.10
2006,10,22,05,08,5.10
2006,10,22,05,09,5.10
2006,10,22,05,10,5.10
2006,10,22,05,11,5.10
2006,10,22,05,12,5.00
2006,10,22,05,13,4.90
2006,10,22,05,14,4.90
2006,10,22,05,15,4.90
2006,10,22,05,16,4.90
2006,10,22,05,17,4.90
2006,10,22,05,18,4.90
2006,10,22,05,19,4.90
2006,10,22,05,20,4.90
2006,10,22,05,21,4.90
2006,10,22,05,22,4.90
2006,10,22,05,23,4.90
2006,10,22,05,24,4.90
2006,10,22,05,25,4.90
2006,10,22,05,26,4.90
2006,10,22,05,27,4.80
2006,10,22,05,28,4.80
2006,10,22,05,29,4.80
2006,10,22,05,30,4.80
2006,10,22,05,31,4.80
2006,10,22,05,32,4.70
2006,10,22,05,33,4.70
2006,10,22,05,34,4.70
2006,10,22,05,35,4.70
2006,10,22,05,36,4.70
2006,10,22,05,37,4.70
2006,10,22,05,38,4.70
2006,10,22,05,39,4.70
2006,10,22,05,40,4.70
2006,10,22,05,41,4.70
2006,10,22,05,42,4.70
2006,10,22,05,43,4.80
2006,10,22,05,44,4.90
2006,10,22,05,45,5.10
2006,10,22,05,46,5.10
2006,10,22,05,47,5.20
2006,10,22,05,48,5.30
2006,10,22,05,49,5.30
2006,10,22,05,50,5.30
2006,10,22,05,51,5.30
2006,10,22,05,52,5.30
2006,10,22,05,53,5.20
2006,10,22,05,54,5.20
2006,10,22,05,55,5.30
2006,10,22,05,56,5.30
2006,10,22,05,57,5.20
2006,10,22,05,58,5.30
2006,10,22,05,59,5.30
2006,10,22,06,00,5.30
2006,10,22,06,01,5.30
2006,10,22,06,02,5.30
2006,10,22,06,03,5.30
2006,10,22,06,04,5.30
2006,10,22,06,05,5.30
2006,10,22,06,06,5.30
2006,10,22,06,07,5.30
2006,10,22,06,08,5.30
2006,10,22,06,09,5.40
2006,10,22,06,10,5.40
2006,10,22,06,11,5.40
2006,10,22,06,12,5.50
2006,10,22,06,13,5.40
2006,10,22,06,14,5.40
2006,10,22,06,15,5.40
2006,10,22,06,16,5.40
2006,10,22,06,17,5.40
2006,10,22,06,18,5.30
2006,10,22,06,19,5.30
2006,10,22,06,20,5.20
2006,10,22,06,21,5.10
2006,10,22,06,22,5.10
2006,10,22,06,23,5.10
2006,10,22,06,24,5.10
2006,10,22,06,25,5.10
2006,10,22,06,26,5.10
2006,10,22,06,27,5.10
2006,10,22,06,28,5.10
2006,10,22,06,29,5.10
2006,10,22,06,30,5.10
2006,10,22,06,31,5.10
2006,10,22,06,32,5.10
2006,10,22,06,33,5.00
2006,10,22,06,34,4.90
2006,10,22,06,35,4.90
2006,10,22,06,36,4.90
2006,10,22,06,37,4.80
2006,10,22,06,38,4.80
2006,10,22,06,39,4.80
2006,10,22,06,40,4.70
2006,10,22,06,41,4.80
2006,10,22,06,42,4.90
2006,10,22,06,43,5.10
2006,10,22,06,44,5.10
2006,10,22,06,45,5.00
2006,10,22,06,46,4.90
2006,10,22,06,47,4.90
2006,10,22,06,48,4.90
2006,10,22,06,49,4.80
2006,10,22,06,50,4.80
2006,10,22,06,51,4.80
2006,10,22,06,52,4.80
2006,10,22,06,53,4.80
2006,10,22,06,54,4.80
2006,10,22,06,55,4.70
2006,10,22,06,56,4.70
2006,10,22,06,57,4.70
2006,10,22,06,58,4.70
2006,10,22,06,59,4.70
2006,10,22,07,00,4.70
2006,10,22,07,01,4.70
2006,10,22,07,02,4.70
2006,10,22,07,03,4.60
2006,10,22,07,04,4.60
2006,10,22,07,05,4.70
2006,10,22,07,06,4.70
2006,10,22,07,07,4.70
2006,10,22,07,08,4.90
2006,10,22,07,09,4.90
2006,10,22,07,10,4.90
2006,10,22,07,11,4.90
2006,10,22,07,12,4.90
2006,10,22,07,13,4.90
2006,10,22,07,14,4.90
2006,10,22,07,15,4.90
2006,10,22,07,16,4.90
2006,10,22,07,17,4.90
2006,10,22,07,18,4.90
2006,10,22,07,19,5.00
2006,10,22,07,20,5.10
2006,10,22,07,21,5.10
2006,10,22,07,22,5.10
2006,10,22,07,23,5.20
2006,10,22,07,24,5.30
2006,10,22,07,25,5.30
2006,10,22,07,26,5.40
2006,10,22,07,27,5.40
2006,10,22,07,28,5.40
2006,10,22,07,29,5.40
2006,10,22,07,30,5.40
2006,10,22,07,31,5.40
2006,10,22,07,32,5.40
2006,10,22,07,33,5.40
2006,10,22,07,34,5.30
2006,10,22,07,35,5.30
2006,10,22,07,36,5.30
2006,10,22,07,37,5.30
2006,10,22,07,38,5.20
2006,10,22,07,39,5.20
2006,10,22,07,40,5.30
2006,10,22,07,41,5.30
2006,10,22,07,42,5.30
2006,10,22,07,43,5.30
2006,10,22,07,44,5.30
2006,10,22,07,45,5.20
2006,10,22,07,46,5.20
2006,10,22,07,47,5.10
2006,10,22,07,48,5.10
2006,10,22,07,49,5.10
2006,10,22,07,50,5.10
2006,10,22,07,51,5.10
2006,10,22,07,52,5.20
2006,10,22,07,53,5.20
2006,10,22,07,54,5.20
2006,10,22,07,55,5.20
2006,10,22,07,56,5.20
2006,10,22,07,57,5.10
2006,10,22,07,58,5.10
2006,10,22,07,59,5.10
2006,10,22,08,00,5.10
2006,10,22,08,01,5.00
2006,10,22,08,02,4.90
2006,10,22,08,03,4.90
2006,10,22,08,04,4.90
2006,10,22,08,05,4.90
2006,10,22,08,06,5.00
2006,10,22,08,07,5.10
2006,10,22,08,08,5.10
2006,10,22,08,09,5.10
2006,10,22,08,10,5.10
2006,10,22,08,11,5.10
2006,10,22,08,12,5.10
2006,10,22,08,13,5.10
2006,10,22,08,14,5.10
2006,10,22,08,15,5.00
2006,10,22,08,16,4.90
2006,10,22,08,17,4.90
2006,10,22,08,18,4.90
2006,10,22,08,19,4.90
2006,10,22,08,20,4.90
2006,10,22,08,21,4.80
2006,10,22,08,22,4.80
2006,10,22,08,23,4.80
2006,10,22,08,24,4.80
2006,10,22,08,25,4.70
2006,10,22,08,26,4.70
2006,10,22,08,27,4.70
2006,10,22,08,28,4.70
2006,10,22,08,29,4.70
2006,10,22,08,30,4.60
2006,10,22,08,31,4.60
2006,10,22,08,32,4.60
2006,10,22,08,33,4.60
2006,10,22,08,34,4.60
2006,10,22,08,35,4.70
2006,10,22,08,36,4.80
2006,10,22,08,37,4.80
2006,10,22,08,38,4.80
2006,10,22,08,39,4.80
2006,10,22,08,40,4.90
2006,10,22,08,41,4.90
2006,10,22,08,42,5.00
2006,10,22,08,43,5.10
2006,10,22,08,44,5.20
2006,10,22,08,45,5.30
2006,10,22,08,46,5.30
2006,10,22,08,47,5.30
2006,10,22,08,48,5.50
2006,10,22,08,49,5.60
2006,10,22,08,50,5.60
2006,10,22,08,51,5.60
2006,10,22,08,52,5.70
2006,10,22,08,53,5.70
2006,10,22,08,54,5.70
2006,10,22,08,55,5.70
2006,10,22,08,56,5.70
2006,10,22,08,57,5.70
2006,10,22,08,58,5.70
2006,10,22,08,59,5.70
2006,10,22,09,00,5.70
2006,10,22,09,01,5.70
2006,10,22,09,02,5.70
2006,10,22,09,03,5.70
2006,10,22,09,04,5.80
2006,10,22,09,05,5.90
2006,10,22,09,06,5.90
2006,10,22,09,07,6.00
2006,10,22,09,08,6.10
2006,10,22,09,09,6.10
2006,10,22,09,10,6.10
2006,10,22,09,11,6.20
2006,10,22,09,12,6.20
2006,10,22,09,13,6.20
2006,10,22,09,14,6.20
2006,10,22,09,15,6.20
2006,10,22,09,16,6.20
2006,10,22,09,17,6.20
2006,10,22,09,18,6.30
2006,10,22,09,19,6.30
2006,10,22,09,20,6.40
2006,10,22,09,21,6.40
2006,10,22,09,22,6.50
2006,10,22,09,23,6.60
2006,10,22,09,24,6.60
2006,10,22,09,25,6.70
2006,10,22,09,26,6.80
2006,10,22,09,27,6.80
2006,10,22,09,28,6.90
2006,10,22,09,29,6.90
2006,10,22,09,30,6.90
2006,10,22,09,31,7.00
2006,10,22,09,32,7.00
2006,10,22,09,33,7.10
2006,10,22,09,34,7.20
2006,10,22,09,35,7.20
2006,10,22,09,36,7.30
2006,10,22,09,37,7.30
2006,10,22,09,38,7.40
2006,10,22,09,39,7.50
2006,10,22,09,40,7.50
2006,10,22,09,41,7.40
2006,10,22,09,42,7.50
2006,10,22,09,43,7.60
2006,10,22,09,44,7.60
2006,10,22,09,45,7.70
2006,10,22,09,46,7.70
2006,10,22,09,47,7.70
2006,10,22,09,48,7.80
2006,10,22,09,49,7.90
2006,10,22,09,50,8.00
2006,10,22,09,51,8.00
2006,10,22,09,52,8.10
2006,10,22,09,53,8.10
2006,10,22,09,54,8.10
2006,10,22,09,55,8.20
2006,10,22,09,56,8.40
2006,10,22,09,57,8.50
2006,10,22,09,58,8.60
2006,10,22,09,59,8.60
2006,10,22,10,00,8.70
2006,10,22,10,01,8.70
2006,10,22,10,02,8.80
2006,10,22,10,03,8.90
2006,10,22,10,04,8.90
2006,10,22,10,05,9.10
2006,10,22,10,06,9.20
2006,10,22,10,07,9.30
2006,10,22,10,08,9.40
2006,10,22,10,09,9.50
2006,10,22,10,10,9.70
2006,10,22,10,11,9.70
2006,10,22,10,12,9.70
2006,10,22,10,13,9.80
2006,10,22,10,14,9.80
2006,10,22,10,15,9.80
2006,10,22,10,16,9.90
2006,10,22,10,17,9.90
2006,10,22,10,18,10.10
2006,10,22,10,19,10.10
2006,10,22,10,20,10.20
2006,10,22,10,21,10.30
2006,10,22,10,22,10.30
2006,10,22,10,23,10.40
2006,10,22,10,24,10.50
2006,10,22,10,25,10.60
2006,10,22,10,26,10.70
2006,10,22,10,27,10.80
2006,10,22,10,28,10.90
2006,10,22,10,29,11.00
2006,10,22,10,30,11.10
2006,10,22,10,31,11.10
2006,10,22,10,32,11.10
2006,10,22,10,33,11.10
2006,10,22,10,34,11.10
2006,10,22,10,35,11.20
2006,10,22,10,36,11.30
2006,10,22,10,37,11.40
2006,10,22,10,38,11.60
2006,10,22,10,39,11.60
2006,10,22,10,40,11.60
2006,10,22,10,41,11.60
2006,10,22,10,42,11.60
2006,10,22,10,43,11.60
2006,10,22,10,44,11.60
2006,10,22,10,45,11.60
2006,10,22,10,46,11.70
2006,10,22,10,47,11.70
2006,10,22,10,48,11.70
2006,10,22,10,49,11.80
2006,10,22,10,50,11.80
2006,10,22,10,51,11.80
2006,10,22,10,52,11.80
2006,10,22,10,53,11.80
2006,10,22,10,54,11.80
2006,10,22,10,55,11.80
2006,10,22,10,56,11.90
2006,10,22,10,57,11.90
2006,10,22,10,58,11.90
2006,10,22,10,59,11.90
2006,10,22,11,00,11.90
2006,10,22,11,01,11.80
2006,10,22,11,02,11.80
2006,10,22,11,03,11.70
2006,10,22,11,04,11.70
2006,10,22,11,05,11.70
2006,10,22,11,06,11.70
2006,10,22,11,07,11.80
2006,10,22,11,08,11.80
2006,10,22,11,09,11.80
2006,10,22,11,10,11.80
2006,10,22,11,11,11.80
2006,10,22,11,12,11.80
2006,10,22,11,13,11.80
2006,10,22,11,14,11.80
2006,10,22,11,15,11.80
2006,10,22,11,16,11.80
2006,10,22,11,17,11.90
2006,10,22,11,18,12.00
2006,10,22,11,19,12.00
2006,10,22,11,20,12.10
2006,10,22,11,21,12.20
2006,10,22,11,22,12.20
2006,10,22,11,23,12.20
2006,10,22,11,24,12.20
2006,10,22,11,25,12.10
2006,10,22,11,26,12.10
2006,10,22,11,27,12.00
2006,10,22,11,28,11.90
2006,10,22,11,29,11.90
2006,10,22,11,30,11.80
2006,10,22,11,31,11.80
2006,10,22,11,32,11.90
2006,10,22,11,33,11.90
2006,10,22,11,34,11.90
2006,10,22,11,35,11.90
2006,10,22,11,36,11.80
2006,10,22,11,37,11.90
2006,10,22,11,38,12.00
2006,10,22,11,39,12.00
2006,10,22,11,40,12.00
2006,10,22,11,41,11.80
2006,10,22,11,42,11.80
2006,10,22,11,43,11.80
2006,10,22,11,44,11.80
2006,10,22,11,45,11.80
2006,10,22,11,46,11.80
2006,10,22,11,47,11.80
2006,10,22,11,48,11.80
2006,10,22,11,49,11.70
2006,10,22,11,50,11.60
2006,10,22,11,51,11.60
2006,10,22,11,52,11.60
2006,10,22,11,53,11.60
2006,10,22,11,54,11.60
2006,10,22,11,55,11.60
2006,10,22,11,56,11.60
2006,10,22,11,57,11.60
2006,10,22,11,58,11.60
2006,10,22,11,59,11.70
2006,10,22,12,00,11.80
2006,10,22,12,01,11.80
2006,10,22,12,02,11.80
2006,10,22,12,03,11.70
2006,10,22,12,04,11.80
2006,10,22,12,05,11.80
2006,10,22,12,06,11.90
2006,10,22,12,07,11.90
2006,10,22,12,08,12.00
2006,10,22,12,09,12.00
2006,10,22,12,10,12.10
2006,10,22,12,11,12.10
2006,10,22,12,12,12.10
2006,10,22,12,13,12.10
2006,10,22,12,14,12.10
2006,10,22,12,15,12.10
2006,10,22,12,16,12.20
2006,10,22,12,17,12.10
2006,10,22,12,18,12.10
2006,10,22,12,19,12.10
2006,10,22,12,20,12.00
2006,10,22,12,21,12.00
2006,10,22,12,22,11.90
2006,10,22,12,23,11.90
2006,10,22,12,24,12.00
2006,10,22,12,25,12.00
2006,10,22,12,26,11.90
2006,10,22,12,27,11.80
2006,10,22,12,28,11.70
2006,10,22,12,29,11.70
2006,10,22,12,30,11.60
2006,10,22,12,31,11.60
2006,10,22,12,32,11.70
2006,10,22,12,33,11.80
2006,10,22,12,34,11.70
2006,10,22,12,35,11.60
2006,10,22,12,36,11.60
2006,10,22,12,37,11.60
2006,10,22,12,38,11.50
2006,10,22,12,39,11.50
2006,10,22,12,40,11.60
2006,10,22,12,41,11.60
2006,10,22,12,42,11.60
2006,10,22,12,43,11.60
2006,10,22,12,44,11.70
2006,10,22,12,45,11.80
2006,10,22,12,46,11.80
2006,10,22,12,47,11.80
2006,10,22,12,48,11.80
2006,10,22,12,49,11.80
2006,10,22,12,50,11.80
2006,10,22,12,51,11.80
2006,10,22,12,52,11.80
2006,10,22,12,53,11.80
2006,10,22,12,54,11.80
2006,10,22,12,55,11.80
2006,10,22,12,56,11.90
2006,10,22,12,57,11.90
2006,10,22,12,58,12.00
2006,10,22,12,59,12.00
2006,10,22,13,00,12.00
2006,10,22,13,01,11.90
2006,10,22,13,02,11.90
2006,10,22,13,03,11.90
2006,10,22,13,04,11.80
2006,10,22,13,05,11.80
2006,10,22,13,06,11.80
2006,10,22,13,07,11.80
2006,10,22,13,08,11.80
2006,10,22,13,09,11.80
2006,10,22,13,10,11.80
2006,10,22,13,11,11.80
2006,10,22,13,12,11.80
2006,10,22,13,13,11.80
2006,10,22,13,14,11.90
2006,10,22,13,15,11.90
2006,10,22,13,16,11.90
2006,10,22,13,17,11.90
2006,10,22,13,18,12.00
2006,10,22,13,19,12.00
2006,10,22,13,20,11.90
2006,10,22,13,21,11.90
2006,10,22,13,22,11.90
2006,10,22,13,23,12.00
2006,10,22,13,24,12.00
2006,10,22,13,25,11.90
2006,10,22,13,26,11.80
2006,10,22,13,27,11.80
2006,10,22,13,28,11.70
2006,10,22,13,29,11.70
2006,10,22,13,30,11.70
2006,10,22,13,31,11.70
2006,10,22,13,32,11.70
2006,10,22,13,33,11.70
2006,10,22,13,34,11.80
2006,10,22,13,35,11.90
2006,10,22,13,36,11.90
2006,10,22,13,37,12.00
2006,10,22,13,38,12.00
2006,10,22,13,39,11.90
2006,10,22,13,40,11.90
2006,10,22,13,41,12.00
2006,10,22,13,42,12.00
2006,10,22,13,43,12.00
2006,10,22,13,44,12.00
2006,10,22,13,45,12.00
2006,10,22,13,46,12.00
2006,10,22,13,47,12.00
2006,10,22,13,48,12.00
2006,10,22,13,49,12.00
2006,10,22,13,50,12.00
2006,10,22,13,51,11.90
2006,10,22,13,52,11.90
2006,10,22,13,53,11.90
2006,10,22,13,54,11.80
2006,10,22,13,55,11.80
2006,10,22,13,56,11.80
2006,10,22,13,57,11.80
2006,10,22,13,58,11.80
2006,10,22,13,59,11.70
2006,10,22,14,00,11.60
2006,10,22,14,01,11.50
2006,10,22,14,02,11.40
2006,10,22,14,03,11.40
2006,10,22,14,04,11.40
2006,10,22,14,05,11.30
2006,10,22,14,06,11.30
2006,10,22,14,07,11.30
2006,10,22,14,08,11.30
2006,10,22,14,09,11.40
2006,10,22,14,10,11.40
2006,10,22,14,11,11.40
2006,10,22,14,12,11.40
2006,10,22,14,13,11.60
2006,10,22,14,14,11.60
2006,10,22,14,15,11.50
2006,10,22,14,16,11.40
2006,10,22,14,17,11.20
2006,10,22,14,18,11.20
2006,10,22,14,19,11.20
2006,10,22,14,20,11.20
2006,10,22,14,21,11.20
2006,10,22,14,22,11.20
2006,10,22,14,23,11.20
2006,10,22,14,24,11.30
2006,10,22,14,25,11.40
2006,10,22,14,26,11.40
2006,10,22,14,27,11.40
2006,10,22,14,28,11.40
2006,10,22,14,29,11.40
2006,10,22,14,30,11.40
2006,10,22,14,31,11.40
2006,10,22,14,32,11.40
2006,10,22,14,33,11.60
2006,10,22,14,34,11.60
2006,10,22,14,35,11.60
2006,10,22,14,36,11.60
2006,10,22,14,37,11.60
2006,10,22,14,38,11.60
2006,10,22,14,39,11.60
2006,10,22,14,40,11.60
2006,10,22,14,41,11.60
2006,10,22,14,42,11.60
2006,10,22,14,43,11.60
2006,10,22,14,44,11.70
2006,10,22,14,45,11.80
2006,10,22,14,46,11.80
2006,10,22,14,47,11.80
2006,10,22,14,48,11.80
2006,10,22,14,49,11.90
2006,10,22,14,50,12.00
2006,10,22,14,51,12.10
2006,10,22,14,52,12.10
2006,10,22,14,53,12.10
2006,10,22,14,54,12.10
2006,10,22,14,55,12.10
2006,10,22,14,56,12.20
2006,10,22,14,57,12.20
2006,10,22,14,58,12.30
2006,10,22,14,59,12.30
2006,10,22,15,00,12.30
2006,10,22,15,01,12.30
2006,10,22,15,02,12.30
2006,10,22,15,03,12.30
2006,10,22,15,04,12.40
2006,10,22,15,05,12.30
2006,10,22,15,06,12.30
2006,10,22,15,07,12.30
2006,10,22,15,08,12.30
2006,10,22,15,09,12.30
2006,10,22,15,10,12.30
2006,10,22,15,11,12.30
2006,10,22,15,12,12.30
2006,10,22,15,13,12.40
2006,10,22,15,14,12.40
2006,10,22,15,15,12.40
2006,10,22,15,16,12.40
2006,10,22,15,17,12.40
2006,10,22,15,18,12.30
2006,10,22,15,19,12.30
2006,10,22,15,20,12.20
2006,10,22,15,21,12.20
2006,10,22,15,22,12.20
2006,10,22,15,23,12.20
2006,10,22,15,24,12.10
2006,10,22,15,25,12.10
2006,10,22,15,26,12.00
2006,10,22,15,27,12.00
2006,10,22,15,28,11.90
2006,10,22,15,29,11.90
2006,10,22,15,30,11.90
2006,10,22,15,31,11.90
2006,10,22,15,32,11.90
2006,10,22,15,33,11.80
2006,10,22,15,34,11.90
2006,10,22,15,35,11.80
2006,10,22,15,36,11.90
2006,10,22,15,37,11.90
2006,10,22,15,38,11.90
2006,10,22,15,39,11.90
2006,10,22,15,40,11.90
2006,10,22,15,41,11.90
2006,10,22,15,42,11.90
2006,10,22,15,43,11.80
2006,10,22,15,44,11.80
2006,10,22,15,45,11.80
2006,10,22,15,46,11.70
2006,10,22,15,47,11.70
2006,10,22,15,48,11.70
2006,10,22,15,49,11.70
2006,10,22,15,50,11.80
2006,10,22,15,51,11.80
2006,10,22,15,52,11.80
2006,10,22,15,53,11.80
2006,10,22,15,54,11.80
2006,10,22,15,55,11.90
2006,10,22,15,56,11.90
2006,10,22,15,57,12.00
2006,10,22,15,58,12.10
2006,10,22,15,59,12.30
2006,10,22,16,00,12.40
2006,10,22,16,01,12.50
2006,10,22,16,02,12.60
2006,10,22,16,03,12.70
2006,10,22,16,04,12.80
2006,10,22,16,05,12.90
2006,10,22,16,06,12.90
2006,10,22,16,07,13.00
2006,10,22,16,08,13.10
2006,10,22,16,09,13.20
2006,10,22,16,10,13.30
2006,10,22,16,11,13.40
2006,10,22,16,12,13.50
2006,10,22,16,13,13.60
2006,10,22,16,14,13.60
2006,10,22,16,15,13.70
2006,10,22,16,16,13.70
2006,10,22,16,17,13.80
2006,10,22,16,18,13.90
2006,10,22,16,19,13.90
2006,10,22,16,20,14.00
2006,10,22,16,21,14.00
2006,10,22,16,22,14.10
2006,10,22,16,23,14.10
2006,10,22,16,24,14.10
2006,10,22,16,25,14.00
2006,10,22,16,26,14.00
2006,10,22,16,27,14.00
2006,10,22,16,28,14.00
2006,10,22,16,29,13.90
2006,10,22,16,30,14.00
2006,10,22,16,31,13.90
2006,10,22,16,32,13.90
2006,10,22,16,33,13.90
2006,10,22,16,34,14.00
2006,10,22,16,35,14.00
2006,10,22,16,36,14.00
2006,10,22,16,37,14.00
2006,10,22,16,38,14.10
2006,10,22,16,39,14.10
2006,10,22,16,40,14.10
2006,10,22,16,41,14.10
2006,10,22,16,42,14.10
2006,10,22,16,43,14.00
2006,10,22,16,44,14.00
2006,10,22,16,45,14.00
2006,10,22,16,46,13.90
2006,10,22,16,47,13.80
2006,10,22,16,48,13.70
2006,10,22,16,49,13.50
2006,10,22,16,50,13.30
2006,10,22,16,51,13.20
2006,10,22,16,52,13.00
2006,10,22,16,53,12.90
2006,10,22,16,54,12.80
2006,10,22,16,55,12.80
2006,10,22,16,56,12.70
2006,10,22,16,57,12.70
2006,10,22,16,58,12.60
2006,10,22,16,59,12.60
2006,10,22,17,00,12.50
2006,10,22,17,01,12.50
2006,10,22,17,02,12.50
2006,10,22,17,03,12.40
2006,10,22,17,04,12.40
2006,10,22,17,05,12.30
2006,10,22,17,06,12.30
2006,10,22,17,07,12.30
2006,10,22,17,08,12.20
2006,10,22,17,09,12.20
2006,10,22,17,10,12.10
2006,10,22,17,11,12.10
2006,10,22,17,12,12.00
2006,10,22,17,13,12.00
2006,10,22,17,14,12.00
2006,10,22,17,15,11.90
2006,10,22,17,16,11.90
2006,10,22,17,17,11.90
2006,10,22,17,18,11.90
2006,10,22,17,19,11.90
2006,10,22,17,20,11.90
2006,10,22,17,21,11.90
2006,10,22,17,22,11.90
2006,10,22,17,23,11.90
2006,10,22,17,24,11.90
2006,10,22,17,25,11.90
2006,10,22,17,26,11.90
2006,10,22,17,27,11.90
2006,10,22,17,28,11.90
2006,10,22,17,29,11.80
2006,10,22,17,30,11.80
2006,10,22,17,31,11.80
2006,10,22,17,32,11.80
2006,10,22,17,33,11.80
2006,10,22,17,34,11.80
2006,10,22,17,35,11.80
2006,10,22,17,36,11.80
2006,10,22,17,37,11.80
2006,10,22,17,38,11.80
2006,10,22,17,39,11.80
2006,10,22,17,40,11.80
2006,10,22,17,41,11.80
2006,10,22,17,42,11.80
2006,10,22,17,43,11.80
2006,10,22,17,44,11.80
2006,10,22,17,45,11.80
2006,10,22,17,46,11.80